CW0630 Weather Reports


Display with metric or nautical units.
time (UTC)temp
F
wind
direction
speed
MPH
gust
MPH
rain 1hr
in
rain 24hr
in
rain mn
in
humidity
%
barometer
mb
20240619171007 87 150 2.0 4.0 0.00 0.00 0.00 50 1027.7
20240619161020 86 98 0.0 6.0 0.00 0.00 0.00 51 1028.2
20240619151025 83 156 0.0 2.0 0.00 0.00 0.00 58 1028.2
20240619141011 83 155 1.0 3.0 0.00 0.00 0.00 56 1028.2
20240619131020 80 173 1.0 6.0 0.00 0.00 0.00 67 1028.4
20240619121013 74 191 2.0 5.0 0.00 0.00 0.00 78 1027.9
20240619111016 69 164 0.0 0.0 0.00 0.00 0.00 88 1027.2
20240619101004 67 164 0.0 2.0 0.00 0.00 0.00 89 1027.1
20240619091033 68 164 0.0 1.0 0.00 0.00 0.00 87 1026.7
20240619081010 69 161 1.0 3.0 0.00 0.00 0.00 83 1026.0
20240619071018 71 130 1.0 4.0 0.00 0.00 0.00 80 1025.6
20240619061021 72 121 2.0 4.0 0.00 0.00 0.00 77 1025.5
20240619051041 74 128 4.0 9.0 0.00 0.00 0.00 74 1025.1
20240619041008 75 123 2.0 6.0 0.00 0.00 0.00 75 1025.6
20240619031034 75 98 0.0 5.0 0.00 0.00 0.00 72 1025.0
20240619021006 77 101 0.0 3.0 0.00 0.00 0.00 65 1025.0
20240619011008 80 113 1.0 6.0 0.00 0.00 0.00 65 1024.1
20240619001022 83 128 2.0 9.0 0.00 0.00 0.00 59 1023.5
20240618231013 86 113 2.0 12.0 0.00 0.00 0.00 56 1023.1
20240618221014 89 117 3.0 10.0 0.00 0.00 0.00 52 1022.9
20240618211020 90 142 3.0 11.0 0.00 0.00 0.00 51 1023.3
20240618201020 89 109 3.0 12.0 0.00 0.00 0.00 53 1023.4
20240618191006 91 123 3.0 14.0 0.00 0.00 0.00 50 1023.8
20240618181016 90 78 4.0 6.0 0.00 0.00 0.00 52 1024.1